Time,TemperatureF,DewpointF,PressureIn,WindDirection,WindDirectionDegrees,WindSpeedMPH,WindSpeedGustMPH,Humidity,HourlyPrecipIn,Conditions,Clouds,dailyrainin,SoftwareType,DateUTC
2013-06-09 00:02:00,58.1,32.7,30.02,SE,133,0.0,0.0,38,0.00,,FEW110,0.00,VWS V13.01,2013-06-09 06:02:00,
2013-06-09 00:07:00,57.9,32.5,30.02,SE,133,0.0,0.0,38,0.00,,FEW110,0.00,VWS V13.01,2013-06-09 06:07:00,
2013-06-09 00:12:00,57.7,33.0,30.02,SE,133,0.0,0.0,39,0.00,,FEW110,0.00,VWS V13.01,2013-06-09 06:12:00,
2013-06-09 00:17:00,57.4,33.3,30.02,SE,132,0.0,0.0,40,0.00,,FEW110,0.00,VWS V13.01,2013-06-09 06:17:00,
2013-06-09 00:22:00,57.2,33.7,30.02,SE,133,0.0,0.0,41,0.00,,FEW110,0.00,VWS V13.01,2013-06-09 06:22:00,
2013-06-09 00:27:00,57.0,33.6,30.02,SE,133,0.0,0.0,41,0.00,,FEW110,0.00,VWS V13.01,2013-06-09 06:27:00,
2013-06-09 00:32:00,56.8,34.0,30.02,SE,133,0.0,0.0,42,0.00,,FEW110,0.00,VWS V13.01,2013-06-09 06:32:00,
2013-06-09 00:38:00,56.8,34.6,30.02,SE,133,0.0,0.0,43,0.00,,FEW110,0.00,VWS V13.01,2013-06-09 06:38:00,
2013-06-09 00:43:00,56.7,34.4,30.02,SE,132,0.0,0.0,43,0.00,,FEW110,0.00,VWS V13.01,2013-06-09 06:43:00,
2013-06-09 00:48:00,56.3,34.7,30.02,SE,133,0.0,0.0,44,0.00,,FEW110,0.00,VWS V13.01,2013-06-09 06:48:00,
2013-06-09 00:53:00,56.3,35.2,30.02,SE,133,0.0,0.0,45,0.00,,FEW110,0.00,VWS V13.01,2013-06-09 06:53:00,
2013-06-09 00:58:00,56.3,35.2,30.02,SE,133,0.0,0.0,45,0.00,,FEW110,0.00,VWS V13.01,2013-06-09 06:58:00,
2013-06-09 01:03:00,56.3,35.2,30.02,SE,133,0.0,0.0,45,0.00,,FEW110,0.00,VWS V13.01,2013-06-09 07:03:00,
2013-06-09 01:08:00,56.1,35.1,30.02,SE,133,0.0,0.0,45,0.00,,FEW110,0.00,VWS V13.01,2013-06-09 07:08:00,
2013-06-09 01:13:00,56.1,35.1,30.02,SE,133,0.0,0.0,45,0.00,,FEW110,0.00,VWS V13.01,2013-06-09 07:13:00,
2013-06-09 01:18:00,55.9,34.9,30.02,SE,133,0.0,0.0,45,0.00,,FEW110,0.00,VWS V13.01,2013-06-09 07:18:00,
2013-06-09 01:23:00,55.9,34.9,30.02,SE,133,0.0,0.0,45,0.00,,FEW110,0.00,VWS V13.01,2013-06-09 07:23:00,
2013-06-09 01:28:00,55.8,35.3,30.02,SE,133,0.0,0.0,46,0.00,,FEW110,0.00,VWS V13.01,2013-06-09 07:28:00,
2013-06-09 01:33:00,55.4,35.0,30.02,SE,133,0.0,0.0,46,0.00,,FEW110,0.00,VWS V13.01,2013-06-09 07:33:00,
2013-06-09 01:38:00,55.2,34.8,30.02,SE,133,0.0,0.0,46,0.00,,FEW110,0.00,VWS V13.01,2013-06-09 07:38:00,
2013-06-09 01:43:00,54.9,35.0,30.02,SE,132,0.0,0.0,47,0.00,,FEW110,0.00,VWS V13.01,2013-06-09 07:43:00,
2013-06-09 01:48:00,54.7,34.9,30.02,SE,133,0.0,0.0,47,0.00,,FEW110,0.00,VWS V13.01,2013-06-09 07:48:00,
2013-06-09 01:53:00,54.5,34.7,30.02,SE,133,0.0,0.0,47,0.00,,FEW110,0.00,VWS V13.01,2013-06-09 07:53:00,
2013-06-09 01:58:00,54.3,35.1,30.02,SE,133,0.0,0.0,48,0.00,,FEW110,0.00,VWS V13.01,2013-06-09 07:58:00,
2013-06-09 02:03:00,54.1,35.4,30.02,SE,132,0.0,0.0,49,0.00,,FEW110,0.00,VWS V13.01,2013-06-09 08:03:00,
2013-06-09 02:08:00,54.1,35.4,30.02,SE,133,0.0,0.0,49,0.00,,FEW110,0.00,VWS V13.01,2013-06-09 08:08:00,
2013-06-09 02:13:00,54.0,35.2,30.02,SE,133,0.0,0.0,49,0.00,,FEW110,0.00,VWS V13.01,2013-06-09 08:13:00,
2013-06-09 02:18:00,53.8,35.6,30.02,SE,133,0.0,0.0,50,0.00,,FEW110,0.00,VWS V13.01,2013-06-09 08:18:00,
2013-06-09 02:23:00,53.6,35.4,30.02,SE,133,0.0,0.0,50,0.00,,FEW110,0.00,VWS V13.01,2013-06-09 08:23:00,
2013-06-09 02:28:00,53.2,35.6,30.02,SE,133,0.0,0.0,51,0.00,,FEW110,0.00,VWS V13.01,2013-06-09 08:28:00,
2013-06-09 02:33:00,53.1,35.4,30.02,SE,133,0.0,0.0,51,0.00,,FEW110,0.00,VWS V13.01,2013-06-09 08:33:00,
2013-06-09 02:38:00,53.1,35.9,29.99,SE,133,0.0,0.0,52,0.00,,FEW110,0.00,VWS V13.01,2013-06-09 08:38:00,
2013-06-09 02:43:00,52.9,35.8,29.99,SE,133,0.0,0.0,52,0.00,,FEW110,0.00,VWS V13.01,2013-06-09 08:43:00,
2013-06-09 02:48:00,52.9,36.2,29.99,SE,133,0.0,0.0,53,0.00,,FEW110,0.00,VWS V13.01,2013-06-09 08:48:00,
2013-06-09 02:53:00,52.7,36.1,29.99,SE,133,0.0,0.0,53,0.00,,FEW110,0.00,VWS V13.01,2013-06-09 08:53:00,
2013-06-09 02:58:00,52.5,36.4,29.99,SE,133,0.0,0.0,54,0.00,,FEW110,0.00,VWS V13.01,2013-06-09 08:58:00,
2013-06-09 03:03:00,52.5,36.4,29.99,SE,133,0.0,0.0,54,0.00,,FEW110,0.00,VWS V13.01,2013-06-09 09:03:00,
2013-06-09 03:08:00,52.5,36.4,29.99,SE,133,0.0,0.0,54,0.00,,FEW110,0.00,VWS V13.01,2013-06-09 09:08:00,
2013-06-09 03:13:00,52.2,36.0,29.99,SE,133,0.0,0.0,54,0.00,,FEW110,0.00,VWS V13.01,2013-06-09 09:13:00,
2013-06-09 03:18:00,52.0,35.9,29.99,SE,133,0.0,0.0,54,0.00,,FEW110,0.00,VWS V13.01,2013-06-09 09:18:00,
2013-06-09 03:23:00,51.8,35.7,29.99,SE,133,0.0,0.0,54,0.00,,FEW110,0.00,VWS V13.01,2013-06-09 09:23:00,
2013-06-09 03:28:00,51.4,35.8,29.99,SE,133,0.0,0.0,55,0.00,,FEW110,0.00,VWS V13.01,2013-06-09 09:28:00,
2013-06-09 03:33:00,51.3,36.1,29.99,SE,133,0.0,0.0,56,0.00,,FEW110,0.00,VWS V13.01,2013-06-09 09:33:00,
2013-06-09 03:38:00,51.1,36.4,29.99,SE,133,0.0,0.0,57,0.00,,FEW110,0.00,VWS V13.01,2013-06-09 09:38:00,
2013-06-09 03:43:00,50.9,36.2,29.99,SE,133,0.0,0.0,57,0.00,,FEW110,0.00,VWS V13.01,2013-06-09 09:43:00,
2013-06-09 03:48:00,50.7,36.5,29.99,SE,133,0.0,0.0,58,0.00,,FEW110,0.00,VWS V13.01,2013-06-09 09:48:00,
2013-06-09 03:53:00,50.7,36.9,29.99,SE,133,0.0,0.0,59,0.00,,FEW110,0.00,VWS V13.01,2013-06-09 09:53:00,
2013-06-09 03:58:00,50.7,36.9,29.99,SE,133,0.0,0.0,59,0.00,,FEW110,0.00,VWS V13.01,2013-06-09 09:58:00,
2013-06-09 04:03:00,50.7,36.9,29.99,SE,133,0.0,0.0,59,0.00,,FEW110,0.00,VWS V13.01,2013-06-09 10:03:00,
2013-06-09 04:08:00,50.5,36.8,29.99,SE,133,0.0,0.0,59,0.00,,FEW110,0.00,VWS V13.01,2013-06-09 10:08:00,
2013-06-09 04:13:00,50.4,37.0,29.99,SE,133,0.0,0.0,60,0.00,,FEW110,0.00,VWS V13.01,2013-06-09 10:13:00,
2013-06-09 04:18:00,50.2,36.8,29.99,SE,133,0.0,0.0,60,0.00,,FEW110,0.00,VWS V13.01,2013-06-09 10:18:00,
2013-06-09 04:23:00,50.0,36.7,29.99,SE,133,0.0,0.0,60,0.00,,FEW110,0.00,VWS V13.01,2013-06-09 10:23:00,
2013-06-09 04:28:00,49.6,36.8,29.99,SE,133,0.0,0.0,61,0.00,,FEW110,0.00,VWS V13.01,2013-06-09 10:28:00,
2013-06-09 04:33:00,49.6,37.2,29.99,SE,133,0.0,0.0,62,0.00,,FEW110,0.00,VWS V13.01,2013-06-09 10:33:00,
2013-06-09 04:38:00,49.5,37.0,29.99,SE,132,0.0,0.0,62,0.00,,FEW110,0.00,VWS V13.01,2013-06-09 10:38:00,
2013-06-09 04:43:00,49.3,37.2,29.99,SE,133,0.0,0.0,63,0.00,,FEW110,0.00,VWS V13.01,2013-06-09 10:43:00,
2013-06-09 04:48:00,49.3,37.2,29.99,SE,133,0.0,0.0,63,0.00,,FEW110,0.00,VWS V13.01,2013-06-09 10:48:00,
2013-06-09 04:53:00,48.9,36.9,29.99,SE,133,0.0,0.0,63,0.00,,FEW110,0.00,VWS V13.01,2013-06-09 10:53:00,
2013-06-09 04:58:00,48.7,37.1,29.99,SE,133,0.0,0.0,64,0.00,,FEW110,0.00,VWS V13.01,2013-06-09 10:58:00,
2013-06-09 05:03:00,48.7,37.1,29.99,SE,133,0.0,0.0,64,0.00,,FEW110,0.00,VWS V13.01,2013-06-09 11:03:00,
2013-06-09 05:08:00,48.6,37.3,29.99,SE,133,0.0,0.0,65,0.00,,FEW110,0.00,VWS V13.01,2013-06-09 11:08:00,
2013-06-09 05:13:00,48.4,37.2,29.99,SE,133,0.0,0.0,65,0.00,,FEW110,0.00,VWS V13.01,2013-06-09 11:13:00,
2013-06-09 05:18:00,48.4,37.2,29.99,SE,133,0.0,0.0,65,0.00,,FEW110,0.00,VWS V13.01,2013-06-09 11:18:00,
2013-06-09 05:23:00,48.2,37.4,29.99,SE,133,0.0,0.0,66,0.00,,FEW110,0.00,VWS V13.01,2013-06-09 11:23:00,
2013-06-09 05:28:00,48.2,37.4,29.99,SE,133,0.0,0.0,66,0.00,,FEW110,0.00,VWS V13.01,2013-06-09 11:28:00,
2013-06-09 05:34:00,48.2,37.8,29.99,SE,133,0.0,0.0,67,0.00,,FEW110,0.00,VWS V13.01,2013-06-09 11:34:00,
2013-06-09 05:39:00,48.2,37.8,29.99,SE,132,0.0,0.0,67,0.00,,FEW110,0.00,VWS V13.01,2013-06-09 11:39:00,
2013-06-09 05:44:00,48.0,38.0,29.99,SE,133,0.0,0.0,68,0.00,,FEW110,0.00,VWS V13.01,2013-06-09 11:44:00,
2013-06-09 05:49:00,48.0,38.0,29.99,SE,133,0.0,0.0,68,0.00,,FEW110,0.00,VWS V13.01,2013-06-09 11:49:00,
2013-06-09 05:54:00,48.0,38.0,29.99,SE,133,0.0,0.0,68,0.00,,FEW110,0.00,VWS V13.01,2013-06-09 11:54:00,
2013-06-09 05:59:00,48.2,38.2,29.99,SE,133,0.0,0.0,68,0.00,,FEW110,0.00,VWS V13.01,2013-06-09 11:59:00,
2013-06-09 06:04:00,48.2,38.2,29.99,SE,133,0.0,0.0,68,0.00,,FEW120,0.00,VWS V13.01,2013-06-09 12:04:00,
2013-06-09 06:09:00,48.4,38.3,30.02,SE,133,0.0,0.0,68,0.00,,FEW120,0.00,VWS V13.01,2013-06-09 12:09:00,
2013-06-09 06:14:00,48.6,38.9,30.02,SE,132,0.0,0.0,69,0.00,,FEW120,0.00,VWS V13.01,2013-06-09 12:14:00,
2013-06-09 06:19:00,48.7,39.0,30.02,SE,133,0.0,0.0,69,0.00,,FEW120,0.00,VWS V13.01,2013-06-09 12:19:00,
2013-06-09 06:24:00,49.1,39.4,30.02,SE,133,0.0,0.0,69,0.00,,FEW120,0.00,VWS V13.01,2013-06-09 12:24:00,
2013-06-09 06:29:00,49.6,40.3,30.02,SE,132,0.0,0.0,70,0.00,,FEW120,0.00,VWS V13.01,2013-06-09 12:29:00,
2013-06-09 06:34:00,50.5,40.8,30.02,SE,133,0.0,3.1,69,0.00,,FEW120,0.00,VWS V13.01,2013-06-09 12:34:00,
2013-06-09 06:39:00,51.3,41.5,30.02,SE,133,0.0,3.1,69,0.00,,FEW120,0.00,VWS V13.01,2013-06-09 12:39:00,
2013-06-09 06:44:00,52.0,41.8,30.02,SE,133,0.0,3.1,68,0.00,,FEW120,0.00,VWS V13.01,2013-06-09 12:44:00,
2013-06-09 06:49:00,52.9,42.2,30.02,SE,133,0.0,0.0,67,0.00,,FEW120,0.00,VWS V13.01,2013-06-09 12:49:00,
2013-06-09 06:54:00,53.4,42.0,29.99,SE,133,0.0,0.0,65,0.00,,FEW120,0.00,VWS V13.01,2013-06-09 12:54:00,
2013-06-09 06:59:00,54.1,41.8,29.99,SE,133,0.0,0.0,63,0.00,,FEW120,0.00,VWS V13.01,2013-06-09 12:59:00,
2013-06-09 07:04:00,55.0,41.8,29.99,SE,133,0.0,0.0,61,0.00,,FEW120,0.00,VWS V13.01,2013-06-09 13:04:00,
2013-06-09 07:09:00,55.8,41.2,30.02,SE,133,0.0,2.2,58,0.00,,FEW120,0.00,VWS V13.01,2013-06-09 13:09:00,
2013-06-09 07:14:00,56.5,41.0,30.02,SE,132,0.0,2.2,56,0.00,,FEW120,0.00,VWS V13.01,2013-06-09 13:14:00,
2013-06-09 07:19:00,56.8,39.9,30.02,SE,133,0.0,0.0,53,0.00,,FEW120,0.00,VWS V13.01,2013-06-09 13:19:00,
2013-06-09 07:24:00,57.4,38.9,30.02,SE,132,0.0,2.2,50,0.00,,FEW120,0.00,VWS V13.01,2013-06-09 13:24:00,
2013-06-09 07:29:00,57.7,37.7,30.02,SSE,158,0.0,3.6,47,0.00,,FEW120,0.00,VWS V13.01,2013-06-09 13:29:00,
2013-06-09 07:34:00,58.3,38.2,30.02,SSE,158,0.0,0.0,47,0.00,,FEW120,0.00,VWS V13.01,2013-06-09 13:34:00,
2013-06-09 07:39:00,59.0,38.3,30.02,SSE,150,0.0,3.6,46,0.00,,FEW120,0.00,VWS V13.01,2013-06-09 13:39:00,
2013-06-09 07:44:00,59.5,38.2,30.02,SE,145,3.1,3.6,45,0.00,,FEW120,0.00,VWS V13.01,2013-06-09 13:44:00,
2013-06-09 07:49:00,59.9,37.4,30.02,SE,124,0.0,4.0,43,0.00,,FEW120,0.00,VWS V13.01,2013-06-09 13:49:00,
2013-06-09 07:54:00,60.4,37.9,30.02,SE,145,2.2,4.0,43,0.00,,FEW120,0.00,VWS V13.01,2013-06-09 13:54:00,
2013-06-09 07:59:00,60.8,37.0,30.02,South,185,2.7,4.0,41,0.00,,FEW120,0.00,VWS V13.01,2013-06-09 13:59:00,
2013-06-09 08:04:00,61.3,37.5,30.02,SE,145,2.7,4.0,41,0.00,,FEW120,0.00,VWS V13.01,2013-06-09 14:04:00,
2013-06-09 08:09:00,61.7,36.5,30.02,ESE,118,2.7,4.0,39,0.00,,FEW120,0.00,VWS V13.01,2013-06-09 14:09:00,
2013-06-09 08:14:00,62.2,36.3,30.02,WSW,256,4.0,4.0,38,0.00,,FEW120,0.00,VWS V13.01,2013-06-09 14:14:00,
2013-06-09 08:19:00,62.6,35.3,30.02,SSW,199,0.0,4.0,36,0.00,,FEW120,0.00,VWS V13.01,2013-06-09 14:19:00,
2013-06-09 08:24:00,62.8,35.5,30.02,ESE,109,3.6,4.0,36,0.00,,FEW120,0.00,VWS V13.01,2013-06-09 14:24:00,
2013-06-09 08:29:00,63.5,35.4,30.02,SSE,152,3.1,4.0,35,0.00,,FEW120,0.00,VWS V13.01,2013-06-09 14:29:00,
2013-06-09 08:34:00,64.2,35.3,30.02,East,87,3.1,4.9,34,0.00,,FEW120,0.00,VWS V13.01,2013-06-09 14:34:00,
2013-06-09 08:39:00,64.8,35.0,30.02,SSW,212,2.7,4.9,33,0.00,,FEW120,0.00,VWS V13.01,2013-06-09 14:39:00,
2013-06-09 08:44:00,65.1,35.3,30.02,SSE,160,3.1,4.9,33,0.00,,FEW120,0.00,VWS V13.01,2013-06-09 14:44:00,
2013-06-09 08:49:00,65.3,35.5,30.02,ESE,119,0.0,4.0,33,0.00,,FEW120,0.00,VWS V13.01,2013-06-09 14:49:00,
2013-06-09 08:54:00,65.7,35.0,30.02,SE,141,3.6,4.0,32,0.00,,FEW120,0.00,VWS V13.01,2013-06-09 14:54:00,
2013-06-09 08:59:00,66.0,34.5,30.02,ESE,115,2.2,4.0,31,0.00,,FEW120,0.00,VWS V13.01,2013-06-09 14:59:00,
2013-06-09 09:04:00,66.7,35.2,30.02,SSE,159,4.9,4.9,31,0.00,,CLR,0.00,VWS V13.01,2013-06-09 15:04:00,
2013-06-09 09:10:00,67.1,33.8,30.02,WSW,247,2.7,4.9,29,0.00,,CLR,0.00,VWS V13.01,2013-06-09 15:10:00,
2013-06-09 09:14:00,67.5,33.2,30.02,SSE,155,3.1,4.9,28,0.00,,CLR,0.00,VWS V13.01,2013-06-09 15:14:00,
2013-06-09 09:20:00,67.8,32.7,30.02,SE,124,4.9,4.9,27,0.00,,CLR,0.00,VWS V13.01,2013-06-09 15:20:00,
2013-06-09 09:24:00,68.2,31.0,30.02,WSW,250,3.6,5.4,25,0.00,,CLR,0.00,VWS V13.01,2013-06-09 15:24:00,
2013-06-09 09:30:00,68.4,32.2,30.02,SSE,147,0.0,5.4,26,0.00,,CLR,0.00,VWS V13.01,2013-06-09 15:30:00,
2013-06-09 09:35:00,69.1,32.8,30.02,SE,132,0.0,3.6,26,0.00,,CLR,0.00,VWS V13.01,2013-06-09 15:35:00,
2013-06-09 09:40:00,70.0,31.6,30.02,East,81,3.6,5.8,24,0.00,,CLR,0.00,VWS V13.01,2013-06-09 15:40:00,
2013-06-09 09:45:00,70.5,32.0,30.02,East,89,3.1,4.0,24,0.00,,CLR,0.00,VWS V13.01,2013-06-09 15:45:00,
2013-06-09 09:50:00,70.9,32.3,30.02,SSW,213,0.0,4.0,24,0.00,,CLR,0.00,VWS V13.01,2013-06-09 15:50:00,
2013-06-09 09:55:00,71.6,31.9,29.99,ESE,106,0.0,4.9,23,0.00,,CLR,0.00,VWS V13.01,2013-06-09 15:55:00,
2013-06-09 10:00:00,72.0,31.1,29.99,East,100,5.4,5.4,22,0.00,,CLR,0.00,VWS V13.01,2013-06-09 16:00:00,
2013-06-09 10:05:00,72.7,32.8,29.99,SE,141,0.0,5.4,23,0.00,,CLR,0.00,VWS V13.01,2013-06-09 16:05:00,
2013-06-09 10:10:00,73.4,32.3,29.96,ENE,75,4.0,5.4,22,0.00,,CLR,0.00,VWS V13.01,2013-06-09 16:10:00,
2013-06-09 10:15:00,73.6,32.4,29.96,ESE,107,4.0,4.9,22,0.00,,CLR,0.00,VWS V13.01,2013-06-09 16:15:00,
2013-06-09 10:20:00,74.1,32.9,29.96,ENE,66,4.9,4.9,22,0.00,,CLR,0.00,VWS V13.01,2013-06-09 16:20:00,
2013-06-09 10:25:00,74.8,32.3,29.96,East,82,3.6,6.3,21,0.00,,CLR,0.00,VWS V13.01,2013-06-09 16:25:00,
2013-06-09 10:30:00,75.9,29.4,29.96,East,100,6.3,6.3,18,0.00,,CLR,0.00,VWS V13.01,2013-06-09 16:30:00,
2013-06-09 10:35:00,76.3,32.3,29.96,East,98,3.6,6.3,20,0.00,,CLR,0.00,VWS V13.01,2013-06-09 16:35:00,
2013-06-09 10:40:00,77.2,26.0,29.93,NE,45,6.3,6.3,15,0.00,,CLR,0.00,VWS V13.01,2013-06-09 16:40:00,
2013-06-09 10:45:00,77.7,23.0,29.93,ESE,110,5.4,5.4,13,0.00,,CLR,0.00,VWS V13.01,2013-06-09 16:45:00,
2013-06-09 10:50:00,78.1,23.3,29.93,East,100,3.1,8.3,13,0.00,,CLR,0.00,VWS V13.01,2013-06-09 16:50:00,
2013-06-09 10:55:00,78.8,17.7,29.96,SSE,165,3.1,8.3,10,0.00,,CLR,0.00,VWS V13.01,2013-06-09 16:55:00,
2013-06-09 11:00:00,79.0,17.8,29.96,ENE,63,0.0,0.0,10,0.00,,CLR,0.00,VWS V13.01,2013-06-09 17:00:00,
2013-06-09 11:05:00,79.2,18.0,29.96,ENE,65,2.7,8.3,10,0.00,,CLR,0.00,VWS V13.01,2013-06-09 17:05:00,
2013-06-09 11:10:00,79.5,18.2,29.96,East,89,2.2,8.3,10,0.00,,CLR,0.00,VWS V13.01,2013-06-09 17:10:00,
2013-06-09 11:15:00,80.4,18.9,29.96,ENE,58,5.4,5.4,10,0.00,,CLR,0.00,VWS V13.01,2013-06-09 17:15:00,
2013-06-09 11:20:00,80.6,16.6,29.96,ENE,76,5.4,8.1,9,0.00,,CLR,0.00,VWS V13.01,2013-06-09 17:20:00,
2013-06-09 11:25:00,81.1,11.3,29.93,East,85,4.0,8.1,7,0.00,,CLR,0.00,VWS V13.01,2013-06-09 17:25:00,
2013-06-09 11:30:00,80.6,10.9,29.93,SE,138,5.4,5.4,7,0.00,,CLR,0.00,VWS V13.01,2013-06-09 17:30:00,
2013-06-09 11:35:00,80.2,10.6,29.93,NE,45,2.7,8.1,7,0.00,,CLR,0.00,VWS V13.01,2013-06-09 17:35:00,
2013-06-09 11:40:00,80.6,10.9,29.93,SE,146,4.9,8.1,7,0.00,,CLR,0.00,VWS V13.01,2013-06-09 17:40:00,
2013-06-09 11:45:00,81.0,11.2,29.93,SE,141,3.6,4.9,7,0.00,,CLR,0.00,VWS V13.01,2013-06-09 17:45:00,
2013-06-09 11:50:00,81.1,11.3,29.93,South,189,2.7,5.4,7,0.00,,CLR,0.00,VWS V13.01,2013-06-09 17:50:00,
2013-06-09 11:55:00,81.1,11.3,29.93,NE,54,2.7,8.1,7,0.00,,CLR,0.00,VWS V13.01,2013-06-09 17:55:00,
2013-06-09 12:00:00,81.9,11.8,29.93,West,275,3.1,3.6,7,0.00,,CLR,0.00,VWS V13.01,2013-06-09 18:00:00,
2013-06-09 12:05:00,81.9,11.8,29.93,ENE,73,3.1,6.7,7,0.00,,FEW080,0.00,VWS V13.01,2013-06-09 18:05:00,
2013-06-09 12:10:00,81.7,11.7,29.93,NE,40,3.6,6.7,7,0.00,,FEW080,0.00,VWS V13.01,2013-06-09 18:10:00,
2013-06-09 12:15:00,81.9,11.8,29.93,WSW,251,2.7,4.0,7,0.00,,FEW080,0.00,VWS V13.01,2013-06-09 18:15:00,
2013-06-09 12:20:00,81.9,11.8,29.93,SSE,153,0.0,5.4,7,0.00,,FEW080,0.00,VWS V13.01,2013-06-09 18:20:00,
2013-06-09 12:25:00,82.8,9.0,29.93,SW,220,0.0,5.4,6,0.00,,FEW080,0.00,VWS V13.01,2013-06-09 18:25:00,
2013-06-09 12:30:00,83.1,9.3,29.93,SW,231,3.1,3.1,6,0.00,,FEW080,0.00,VWS V13.01,2013-06-09 18:30:00,
2013-06-09 12:35:00,82.8,9.0,29.93,West,262,3.6,6.3,6,0.00,,FEW080,0.00,VWS V13.01,2013-06-09 18:35:00,
2013-06-09 12:40:00,82.2,12.1,29.93,SE,124,2.2,6.3,7,0.00,,FEW080,0.00,VWS V13.01,2013-06-09 18:40:00,
2013-06-09 12:45:00,82.2,12.1,29.93,West,262,4.0,4.0,7,0.00,,FEW080,0.00,VWS V13.01,2013-06-09 18:45:00,
2013-06-09 12:50:00,82.6,8.9,29.93,SE,124,5.8,8.7,6,0.00,,FEW080,0.00,VWS V13.01,2013-06-09 18:50:00,
2013-06-09 12:55:00,82.9,9.1,29.93,ESE,110,5.4,8.7,6,0.00,,FEW080,0.00,VWS V13.01,2013-06-09 18:55:00,
2013-06-09 13:00:00,83.5,9.5,29.93,NE,54,3.1,3.6,6,0.00,,FEW080,0.00,VWS V13.01,2013-06-09 19:00:00,
2013-06-09 13:05:00,83.1,9.3,29.93,NE,51,0.0,5.4,6,0.00,,FEW080,0.00,VWS V13.01,2013-06-09 19:05:00,
2013-06-09 13:10:00,84.4,10.2,29.93,ENE,67,2.7,5.4,6,0.00,,FEW080,0.00,VWS V13.01,2013-06-09 19:10:00,
2013-06-09 13:15:00,84.4,10.2,29.93,ESE,102,3.1,5.4,6,0.00,,FEW080,0.00,VWS V13.01,2013-06-09 19:15:00,
2013-06-09 13:20:00,84.4,10.2,29.93,SE,136,5.4,8.7,6,0.00,,FEW080,0.00,VWS V13.01,2013-06-09 19:20:00,
2013-06-09 13:25:00,83.7,9.7,29.93,SE,141,3.6,8.7,6,0.00,,FEW080,0.00,VWS V13.01,2013-06-09 19:25:00,
2013-06-09 13:30:00,83.8,9.8,29.93,East,86,2.2,5.8,6,0.00,,FEW080,0.00,VWS V13.01,2013-06-09 19:30:00,
2013-06-09 13:35:00,84.2,10.1,29.93,East,95,3.1,5.8,6,0.00,,FEW080,0.00,VWS V13.01,2013-06-09 19:35:00,
2013-06-09 13:40:00,84.4,10.2,29.93,SSW,213,0.0,5.8,6,0.00,,FEW080,0.00,VWS V13.01,2013-06-09 19:40:00,
2013-06-09 13:45:00,84.9,10.6,29.93,ESE,120,4.0,4.0,6,0.00,,FEW080,0.00,VWS V13.01,2013-06-09 19:45:00,
2013-06-09 13:50:00,85.3,10.8,29.93,ENE,65,2.7,5.4,6,0.00,,FEW080,0.00,VWS V13.01,2013-06-09 19:50:00,
2013-06-09 13:55:00,86.2,11.5,29.93,WSW,246,2.2,5.4,6,0.00,,FEW080,0.00,VWS V13.01,2013-06-09 19:55:00,
2013-06-09 14:00:00,86.5,11.7,29.93,SE,126,2.2,2.2,6,0.00,,FEW080,0.00,VWS V13.01,2013-06-09 20:00:00,
2013-06-09 14:05:00,86.5,11.7,29.93,ESE,112,2.7,5.8,6,0.00,,FEW080,0.00,VWS V13.01,2013-06-09 20:05:00,
2013-06-09 14:10:00,86.5,11.7,29.93,WSW,250,4.0,6.3,6,0.00,,FEW080,0.00,VWS V13.01,2013-06-09 20:10:00,
2013-06-09 14:16:00,86.0,11.4,29.93,WSW,244,3.6,6.3,6,0.00,,FEW080,0.00,VWS V13.01,2013-06-09 20:16:00,
2013-06-09 14:21:00,86.2,11.5,29.93,WSW,239,4.9,6.3,6,0.00,,FEW080,0.00,VWS V13.01,2013-06-09 20:21:00,
2013-06-09 14:26:00,86.7,11.9,29.90,ESE,112,3.6,6.3,6,0.00,,FEW080,0.00,VWS V13.01,2013-06-09 20:26:00,
2013-06-09 14:31:00,86.9,12.0,29.90,ENE,70,0.0,5.4,6,0.00,,FEW080,0.00,VWS V13.01,2013-06-09 20:31:00,
2013-06-09 14:36:00,87.3,12.2,29.90,East,82,5.8,5.8,6,0.00,,FEW080,0.00,VWS V13.01,2013-06-09 20:36:00,
2013-06-09 14:41:00,87.4,12.4,29.90,South,170,5.8,6.3,6,0.00,,FEW080,0.00,VWS V13.01,2013-06-09 20:41:00,
2013-06-09 14:46:00,87.3,12.2,29.90,ENE,59,2.7,4.0,6,0.00,,FEW080,0.00,VWS V13.01,2013-06-09 20:46:00,
2013-06-09 14:51:00,87.8,8.6,29.90,SE,131,3.6,5.8,5,0.00,,FEW080,0.00,VWS V13.01,2013-06-09 20:51:00,
2013-06-09 14:56:00,88.3,8.9,29.90,ENE,68,5.4,6.3,5,0.00,,FEW080,0.00,VWS V13.01,2013-06-09 20:56:00,
2013-06-09 15:01:00,88.3,8.9,29.90,WNW,293,4.0,5.4,5,0.00,,FEW080,0.00,VWS V13.01,2013-06-09 21:01:00,
2013-06-09 15:06:00,88.7,9.2,29.90,North,357,0.0,5.4,5,0.00,,FEW100,0.00,VWS V13.01,2013-06-09 21:06:00,
2013-06-09 15:11:00,89.1,9.4,29.90,SE,124,4.0,5.4,5,0.00,,FEW100,0.00,VWS V13.01,2013-06-09 21:11:00,
2013-06-09 15:16:00,88.5,9.1,29.90,ENE,60,4.9,6.3,5,0.00,,FEW100,0.00,VWS V13.01,2013-06-09 21:16:00,
2013-06-09 15:21:00,88.2,8.8,29.90,ESE,113,3.1,6.3,5,0.00,,FEW100,0.00,VWS V13.01,2013-06-09 21:21:00,
2013-06-09 15:26:00,88.3,8.9,29.90,SE,145,5.8,6.3,5,0.00,,FEW100,0.00,VWS V13.01,2013-06-09 21:26:00,
2013-06-09 15:31:00,88.3,8.9,29.90,SE,146,0.0,0.0,5,0.00,,FEW100,0.00,VWS V13.01,2013-06-09 21:31:00,
2013-06-09 15:36:00,89.2,9.6,29.90,East,90,3.1,4.0,5,0.00,,FEW100,0.00,VWS V13.01,2013-06-09 21:36:00,
2013-06-09 15:41:00,90.1,10.2,29.90,ENE,74,2.7,4.0,5,0.00,,FEW100,0.00,VWS V13.01,2013-06-09 21:41:00,
2013-06-09 15:46:00,90.5,10.4,29.90,ENE,63,0.0,3.1,5,0.00,,FEW100,0.00,VWS V13.01,2013-06-09 21:46:00,
2013-06-09 15:51:00,90.7,10.6,29.90,SE,142,0.0,5.8,5,0.00,,FEW100,0.00,VWS V13.01,2013-06-09 21:51:00,
2013-06-09 15:56:00,90.9,10.7,29.90,East,96,5.8,5.8,5,0.00,,FEW100,0.00,VWS V13.01,2013-06-09 21:56:00,
2013-06-09 16:01:00,90.1,10.2,29.90,East,93,2.7,2.7,5,0.00,,FEW100,0.00,VWS V13.01,2013-06-09 22:01:00,
2013-06-09 16:07:00,90.1,10.2,29.90,ESE,112,4.9,7.2,5,0.00,,FEW100,0.00,VWS V13.01,2013-06-09 22:07:00,
2013-06-09 16:12:00,90.0,10.1,29.90,East,80,5.4,8.1,5,0.00,,FEW100,0.00,VWS V13.01,2013-06-09 22:12:00,
2013-06-09 16:17:00,89.8,9.9,29.90,East,95,3.1,5.4,5,0.00,,FEW100,0.00,VWS V13.01,2013-06-09 22:17:00,
2013-06-09 16:22:00,89.4,9.7,29.90,SSE,152,2.7,7.6,5,0.00,,FEW100,0.00,VWS V13.01,2013-06-09 22:22:00,
2013-06-09 16:27:00,89.8,9.9,29.90,South,185,2.2,7.6,5,0.00,,FEW100,0.00,VWS V13.01,2013-06-09 22:27:00,
2013-06-09 16:32:00,90.3,10.3,29.90,East,90,3.6,4.0,5,0.00,,FEW100,0.00,VWS V13.01,2013-06-09 22:32:00,
2013-06-09 16:37:00,90.5,10.4,29.90,SW,226,4.0,5.4,5,0.00,,FEW100,0.00,VWS V13.01,2013-06-09 22:37:00,
2013-06-09 16:42:00,90.0,10.1,29.90,ENE,71,2.2,5.4,5,0.00,,FEW100,0.00,VWS V13.01,2013-06-09 22:42:00,
2013-06-09 16:47:00,90.1,10.2,29.90,SSE,160,0.0,0.0,5,0.00,,FEW100,0.00,VWS V13.01,2013-06-09 22:47:00,
2013-06-09 16:52:00,90.1,10.2,29.90,East,86,2.7,5.4,5,0.00,,FEW100,0.00,VWS V13.01,2013-06-09 22:52:00,
2013-06-09 16:57:00,90.3,10.3,29.90,West,274,0.0,5.4,5,0.00,,FEW100,0.00,VWS V13.01,2013-06-09 22:57:00,
2013-06-09 17:02:00,91.0,10.8,29.90,SSW,207,0.0,3.1,5,0.00,,FEW100,0.00,VWS V13.01,2013-06-09 23:02:00,
2013-06-09 17:07:00,91.8,6.4,29.90,SSW,206,3.1,3.1,4,0.00,,FEW100,0.00,VWS V13.01,2013-06-09 23:07:00,
2013-06-09 17:12:00,91.8,6.4,29.90,SSW,198,2.7,4.9,4,0.00,,FEW100,0.00,VWS V13.01,2013-06-09 23:12:00,
2013-06-09 17:17:00,91.6,6.3,29.90,SE,142,0.0,3.6,4,0.00,,FEW100,0.00,VWS V13.01,2013-06-09 23:17:00,
2013-06-09 17:22:00,92.1,6.6,29.90,East,87,3.1,3.6,4,0.00,,FEW100,0.00,VWS V13.01,2013-06-09 23:22:00,
2013-06-09 17:27:00,91.8,6.4,29.90,SE,135,3.6,4.0,4,0.00,,FEW100,0.00,VWS V13.01,2013-06-09 23:27:00,
2013-06-09 17:32:00,91.6,6.3,29.90,South,190,2.7,4.0,4,0.00,,FEW100,0.00,VWS V13.01,2013-06-09 23:32:00,
2013-06-09 17:37:00,91.2,10.9,29.90,ESE,104,4.0,5.8,5,0.00,,FEW100,0.00,VWS V13.01,2013-06-09 23:37:00,
2013-06-09 17:42:00,90.7,10.6,29.90,East,96,0.0,6.3,5,0.00,,FEW100,0.00,VWS V13.01,2013-06-09 23:42:00,
2013-06-09 17:47:00,90.9,10.7,29.90,ENE,71,3.6,4.0,5,0.00,,FEW100,0.00,VWS V13.01,2013-06-09 23:47:00,
2013-06-09 17:52:00,90.9,10.7,29.90,East,91,4.0,5.8,5,0.00,,FEW100,0.00,VWS V13.01,2013-06-09 23:52:00,
2013-06-09 17:57:00,90.9,10.7,29.90,East,91,0.0,5.8,5,0.00,,FEW100,0.00,VWS V13.01,2013-06-09 23:57:00,
2013-06-09 18:02:00,91.6,6.3,29.90,East,101,3.1,3.1,4,0.00,,FEW100,0.00,VWS V13.01,2013-06-10 00:02:00,
2013-06-09 18:07:00,91.6,6.3,29.90,ESE,116,3.1,5.4,4,0.00,,FEW100,0.00,VWS V13.01,2013-06-10 00:07:00,
2013-06-09 18:12:00,91.0,10.8,29.90,ENE,72,2.7,5.8,5,0.00,,FEW100,0.00,VWS V13.01,2013-06-10 00:12:00,
2013-06-09 18:17:00,90.9,10.7,29.90,ENE,72,2.2,5.4,5,0.00,,FEW100,0.00,VWS V13.01,2013-06-10 00:17:00,
2013-06-09 18:22:00,91.4,6.1,29.90,ESE,110,0.0,5.4,4,0.00,,FEW100,0.00,VWS V13.01,2013-06-10 00:22:00,
2013-06-09 18:27:00,91.6,6.3,29.87,East,83,2.2,5.4,4,0.00,,FEW100,0.00,VWS V13.01,2013-06-10 00:27:00,
2013-06-09 18:32:00,91.4,6.1,29.87,East,90,4.0,4.9,4,0.00,,FEW100,0.00,VWS V13.01,2013-06-10 00:32:00,
2013-06-09 18:37:00,90.9,10.7,29.87,SE,135,2.7,4.9,5,0.00,,FEW100,0.00,VWS V13.01,2013-06-10 00:37:00,
2013-06-09 18:42:00,90.7,10.6,29.87,ESE,116,3.1,5.4,5,0.00,,FEW100,0.00,VWS V13.01,2013-06-10 00:42:00,
2013-06-09 18:47:00,90.7,10.6,29.87,SE,129,3.1,4.0,5,0.00,,FEW100,0.00,VWS V13.01,2013-06-10 00:47:00,
2013-06-09 18:52:00,90.5,10.4,29.87,East,92,4.0,5.4,5,0.00,,FEW100,0.00,VWS V13.01,2013-06-10 00:52:00,
2013-06-09 18:58:00,90.1,10.2,29.87,East,81,3.6,6.3,5,0.00,,FEW100,0.00,VWS V13.01,2013-06-10 00:58:00,
2013-06-09 19:03:00,89.8,9.9,29.87,South,179,3.6,7.6,5,0.00,,FEW100,0.00,VWS V13.01,2013-06-10 01:03:00,
2013-06-09 19:08:00,89.6,9.8,29.87,East,86,5.4,7.6,5,0.00,,FEW100,0.00,VWS V13.01,2013-06-10 01:08:00,
2013-06-09 19:13:00,89.4,9.7,29.87,SE,145,3.1,7.6,5,0.00,,FEW100,0.00,VWS V13.01,2013-06-10 01:13:00,
2013-06-09 19:18:00,89.1,9.4,29.87,ESE,102,2.7,4.9,5,0.00,,FEW100,0.00,VWS V13.01,2013-06-10 01:18:00,
2013-06-09 19:23:00,89.1,9.4,29.87,East,101,0.0,4.9,5,0.00,,FEW100,0.00,VWS V13.01,2013-06-10 01:23:00,
2013-06-09 19:28:00,88.9,9.3,29.87,ESE,102,0.0,4.9,5,0.00,,FEW100,0.00,VWS V13.01,2013-06-10 01:28:00,
2013-06-09 19:33:00,88.5,9.1,29.87,SE,133,4.9,5.4,5,0.00,,FEW100,0.00,VWS V13.01,2013-06-10 01:33:00,
2013-06-09 19:38:00,88.0,8.7,29.87,East,95,4.0,5.4,5,0.00,,FEW100,0.00,VWS V13.01,2013-06-10 01:38:00,
2013-06-09 19:43:00,87.4,12.4,29.87,East,84,3.1,5.4,6,0.00,,FEW100,0.00,VWS V13.01,2013-06-10 01:43:00,
2013-06-09 19:48:00,87.3,12.2,29.87,East,101,0.0,4.0,6,0.00,,FEW100,0.00,VWS V13.01,2013-06-10 01:48:00,
2013-06-09 19:53:00,87.1,12.1,29.87,East,99,0.0,4.0,6,0.00,,FEW100,0.00,VWS V13.01,2013-06-10 01:53:00,
2013-06-09 19:58:00,87.1,12.1,29.87,SE,130,2.7,4.0,6,0.00,,FEW100,0.00,VWS V13.01,2013-06-10 01:58:00,
2013-06-09 20:03:00,86.4,11.6,29.87,ESE,122,3.6,3.6,6,0.00,,FEW100,0.00,VWS V13.01,2013-06-10 02:03:00,
2013-06-09 20:08:00,85.5,11.0,29.87,ESE,117,2.7,3.6,6,0.00,,FEW100,0.00,VWS V13.01,2013-06-10 02:08:00,
2013-06-09 20:13:00,84.6,10.3,29.87,SE,130,0.0,3.6,6,0.00,,FEW100,0.00,VWS V13.01,2013-06-10 02:13:00,
2013-06-09 20:18:00,83.7,9.7,29.87,SE,130,0.0,0.0,6,0.00,,FEW100,0.00,VWS V13.01,2013-06-10 02:18:00,
2013-06-09 20:23:00,82.9,9.1,29.87,SE,130,0.0,0.0,6,0.00,,FEW100,0.00,VWS V13.01,2013-06-10 02:23:00,
2013-06-09 20:28:00,81.9,11.8,29.87,ESE,107,0.0,2.7,7,0.00,,FEW100,0.00,VWS V13.01,2013-06-10 02:28:00,
2013-06-09 20:33:00,81.1,11.3,29.87,East,88,0.0,0.0,7,0.00,,FEW100,0.00,VWS V13.01,2013-06-10 02:33:00,
2013-06-09 20:38:00,80.6,10.9,29.90,East,89,0.0,0.0,7,0.00,,FEW100,0.00,VWS V13.01,2013-06-10 02:38:00,
2013-06-09 20:43:00,80.1,10.5,29.90,ESE,108,0.0,2.2,7,0.00,,FEW100,0.00,VWS V13.01,2013-06-10 02:43:00,
2013-06-09 20:48:00,79.7,10.2,29.90,ESE,108,0.0,0.0,7,0.00,,FEW100,0.00,VWS V13.01,2013-06-10 02:48:00,
2013-06-09 20:53:00,79.3,10.0,29.90,ESE,108,0.0,0.0,7,0.00,,FEW100,0.00,VWS V13.01,2013-06-10 02:53:00,
2013-06-09 20:58:00,78.6,12.4,29.90,ESE,122,2.2,2.7,8,0.00,,FEW100,0.00,VWS V13.01,2013-06-10 02:58:00,
2013-06-09 21:03:00,77.9,11.9,29.90,ESE,121,0.0,0.0,8,0.00,,FEW100,0.00,VWS V13.01,2013-06-10 03:03:00,
2013-06-09 21:08:00,77.2,11.4,29.93,ESE,122,0.0,0.0,8,0.00,,FEW100,0.00,VWS V13.01,2013-06-10 03:08:00,
2013-06-09 21:13:00,76.8,11.1,29.93,ESE,122,0.0,0.0,8,0.00,,FEW100,0.00,VWS V13.01,2013-06-10 03:13:00,
2013-06-09 21:18:00,76.5,10.8,29.93,ESE,122,0.0,0.0,8,0.00,,CLR,0.00,VWS V13.01,2013-06-10 03:18:00,
2013-06-09 21:23:00,75.9,10.4,29.93,ESE,122,0.0,0.0,8,0.00,,CLR,0.00,VWS V13.01,2013-06-10 03:23:00,
2013-06-09 21:28:00,75.4,15.1,29.93,ESE,119,0.0,2.7,10,0.00,,CLR,0.00,VWS V13.01,2013-06-10 03:28:00,
2013-06-09 21:33:00,75.0,17.0,29.93,SE,127,0.0,2.2,11,0.00,,CLR,0.00,VWS V13.01,2013-06-10 03:33:00,
2013-06-09 21:38:00,74.8,16.9,29.93,SW,220,0.0,3.1,11,0.00,,CLR,0.00,VWS V13.01,2013-06-10 03:38:00,
2013-06-09 21:43:00,74.5,16.6,29.93,SW,220,0.0,3.1,11,0.00,,CLR,0.00,VWS V13.01,2013-06-10 03:43:00,
2013-06-09 21:48:00,73.9,16.1,29.93,SW,220,0.0,0.0,11,0.00,,CLR,0.00,VWS V13.01,2013-06-10 03:48:00,
2013-06-09 21:53:00,73.4,15.7,29.93,SW,220,0.0,0.0,11,0.00,,CLR,0.00,VWS V13.01,2013-06-10 03:53:00,
2013-06-09 21:58:00,73.0,15.5,29.93,SW,220,0.0,0.0,11,0.00,,CLR,0.00,VWS V13.01,2013-06-10 03:58:00,
2013-06-09 22:01:00,72.9,15.3,29.93,SW,220,0.0,0.0,11,0.00,,CLR,0.00,VWS V13.01,2013-06-10 04:01:00,
2013-06-09 22:02:00,72.7,15.2,29.93,SW,220,0.0,0.0,11,0.00,,CLR,0.00,VWS V13.01,2013-06-10 04:02:00,
2013-06-09 22:07:00,72.7,15.2,29.93,SW,229,0.0,3.1,11,0.00,,CLR,0.00,VWS V13.01,2013-06-10 04:07:00,
2013-06-09 22:12:00,72.9,15.3,29.96,WSW,247,0.0,3.1,11,0.00,,CLR,0.00,VWS V13.01,2013-06-10 04:12:00,
2013-06-09 22:17:00,72.7,15.2,29.96,WSW,238,0.0,2.7,11,0.00,,CLR,0.00,VWS V13.01,2013-06-10 04:17:00,
2013-06-09 22:22:00,72.5,15.0,29.96,WSW,238,0.0,2.7,11,0.00,,CLR,0.00,VWS V13.01,2013-06-10 04:22:00,
2013-06-09 22:27:00,72.1,20.4,29.96,WSW,238,0.0,2.7,14,0.00,,CLR,0.00,VWS V13.01,2013-06-10 04:27:00,
2013-06-09 22:32:00,71.8,20.1,29.96,South,183,0.0,0.0,14,0.00,,CLR,0.00,VWS V13.01,2013-06-10 04:32:00,
2013-06-09 22:37:00,71.6,19.9,29.96,WSW,242,4.9,4.9,14,0.00,,CLR,0.00,VWS V13.01,2013-06-10 04:37:00,
2013-06-09 22:42:00,71.6,19.9,29.96,South,178,0.0,4.9,14,0.00,,CLR,0.00,VWS V13.01,2013-06-10 04:42:00,
2013-06-09 22:47:00,71.6,19.9,29.96,SW,231,0.0,0.0,14,0.00,,CLR,0.00,VWS V13.01,2013-06-10 04:47:00,
2013-06-09 22:52:00,71.2,19.6,29.96,SSW,194,0.0,0.0,14,0.00,,CLR,0.00,VWS V13.01,2013-06-10 04:52:00,
2013-06-09 22:57:00,70.9,19.4,29.96,SSE,149,0.0,2.7,14,0.00,,CLR,0.00,VWS V13.01,2013-06-10 04:57:00,
2013-06-09 23:02:00,70.5,19.1,29.96,SSE,149,0.0,0.0,14,0.00,,CLR,0.00,VWS V13.01,2013-06-10 05:02:00,
2013-06-09 23:07:00,69.8,23.1,29.96,SSE,149,0.0,0.0,17,0.00,,CLR,0.00,VWS V13.01,2013-06-10 05:07:00,
2013-06-09 23:12:00,69.3,22.6,29.96,SSE,149,0.0,0.0,17,0.00,,CLR,0.00,VWS V13.01,2013-06-10 05:12:00,
2013-06-09 23:17:00,68.7,22.2,29.96,SSE,149,0.0,0.0,17,0.00,,CLR,0.00,VWS V13.01,2013-06-10 05:17:00,
2013-06-09 23:22:00,68.5,22.0,29.96,SSE,149,0.0,0.0,17,0.00,,CLR,0.00,VWS V13.01,2013-06-10 05:22:00,
2013-06-09 23:27:00,68.7,22.2,29.96,SW,215,2.7,2.7,17,0.00,,CLR,0.00,VWS V13.01,2013-06-10 05:27:00,
2013-06-09 23:32:00,69.1,22.5,29.96,SW,232,0.0,3.1,17,0.00,,CLR,0.00,VWS V13.01,2013-06-10 05:32:00,
2013-06-09 23:37:00,69.3,22.6,29.96,SW,231,0.0,3.1,17,0.00,,CLR,0.00,VWS V13.01,2013-06-10 05:37:00,
2013-06-09 23:42:00,69.4,22.8,29.96,SW,236,0.0,3.1,17,0.00,,CLR,0.00,VWS V13.01,2013-06-10 05:42:00,
2013-06-09 23:47:00,69.3,22.6,29.96,SW,236,2.2,2.2,17,0.00,,CLR,0.00,VWS V13.01,2013-06-10 05:47:00,
2013-06-09 23:52:00,68.9,22.3,29.96,SW,236,0.0,2.2,17,0.00,,CLR,0.00,VWS V13.01,2013-06-10 05:52:00,
2013-06-09 23:57:00,68.4,21.9,29.96,SW,236,0.0,2.2,17,0.00,,CLR,0.00,VWS V13.01,2013-06-10 05:57:00,